YAYEYBAS

Guest
Details From YAYE - Ayers Rock
To YBAS - Alice Springs
Flight Number -
Tags decoded
Created
Modified
Stats Distance 182 nm / 337 km
Max Altitude 0 ft / 0 m
Waypoints 5
Social Downloads 1
Likes 0
Share VATSIM

Download

Looking for another format? Having issues loading an existing format? Contact us
Advertisement - Login to hide

Notes

Requested: YAYE AYE J64 AS YBAS

Route

YAYE AYE J64 AS YBAS

ID Type Via Altitude Latitude Longitude Leg Dist Tot Dist Heading (true) Name
O YAYE APT - 0 ft / 0 m -25.18556˚ 130.97664˚ - 0 nm - Ayers Rock
AYE NDB - 0 ft / 0 m -25.17278˚ 130.97472˚ 0 nm 0 nm 352° / 352° AYERS ROCK NDB-DME
ARNTU FIX J64 (AWY-LO) 0 ft / 0 m -24.49500˚ 132.42556˚ 88 nm 89 nm 63° / 62° -
AS NDB J64 (AWY-HI) 0 ft / 0 m -23.77794˚ 133.87352˚ 90 nm 180 nm 62° / 61° ALICE SPRINGS NDB
O YBAS APT - 0 ft / 0 m -23.80445˚ 133.89522˚ 1 nm 181 nm 143° / 143° Alice Springs

Altitude Profile

Advertisement - Login to hide

Weather


0- 5 10 15 20 25 30 35+ Temperature / ° C

Clouds and Precipitation
Forecast for 2018-05-22 00:00 UTC. Updated 4 hours ago

Ground ~20,000 ft ~40,000 ft Winds

YAYE

Details ICAO YAYE (AYQ)
Name Ayers Rock
Region Australia
Timezone Australia/Darwin (UTC+9.5)
Stats Elevation 1,625 ft / 495 m (AMSL)
Location -25.185555° 130.976642°
Runways 1
Magnetic Variation 3.905° E

METAR

YAYE 220307Z AUTO 09017G27KT 9999 // NCD 19/01 Q1027

Decode

TAF

Not found

Departure Runways

ID Width Length Bearing (true) Bearing (mag) Surface Threshold Offset Overrun Length
13 98 ft / 30 m 8,526 ft / 2,599 m 129.70° 125.79° Asphalt 0 ft / 0 m 0 ft / 0 m
31 98 ft / 30 m 8,526 ft / 2,599 m 309.70° 305.79° Asphalt 0 ft / 0 m 0 ft / 0 m

YBAS

Details ICAO YBAS (ASP)
Name Alice Springs
Region Australia
Timezone Australia/Darwin (UTC+9.5)
Stats Elevation 1,789 ft / 545 m (AMSL)
Location -23.804452° 133.895220°
Runways 2
Magnetic Variation 4.573° E

METAR

YBAS 220300Z AUTO 11017KT 9999 // NCD 20/02 Q1027

Decode

TAF

TAF YBAS 212305Z 2200/2224 10015G25KT CAVOK FM220800 11010KT CAVOK

Decode

Destination Runways

ID Width Length Bearing (true) Bearing (mag) Surface Threshold Offset Overrun Length
12 148 ft / 45 m 7,996 ft / 2,437 m 120.40° 115.83° Asphalt 0 ft / 0 m 0 ft / 0 m
17 59 ft / 18 m 3,729 ft / 1,137 m 178.24° 173.67° Asphalt 0 ft / 0 m 0 ft / 0 m
30 148 ft / 45 m 7,996 ft / 2,437 m 300.40° 295.83° Asphalt 0 ft / 0 m 0 ft / 0 m
35 59 ft / 18 m 3,729 ft / 1,137 m 358.24° 353.67° Asphalt 0 ft / 0 m 0 ft / 0 m

Approach Navaids

Runway Type Ident Frequency Range Bearing (true) Bearing (mag) Slope Elevation
12 Localiser IAS 109.90 MHz 18 nm / 33 km 120.58° 116.01° - 1,789 ft / 545 m (AMSL)
12 Glidescope IAS 109.90 MHz 10 nm / 19 km 120.40° 115.83° 3.00° 1,789 ft / 545 m (AMSL)

Popular Alternatives